• In Kazakhstan
  • List of Countries
  • For 7 days
  • Water Temperature
  • Satellite Maps
  • Weather Map
  • News
  • Weather Widgets
  • user-avatar
    Login

    Hourly Weather Klagenfurt

    Today, 16 June, Sunday

    Time Temperature Precipitation Wind Pressure Humidity
    00:00 +18°C° 0 mm 1 mps 689 mmHg 72%
    01:00 +16°C° 0 mm 1 mps 689 mmHg 72%
    02:00 +16°C° 0 mm 1 mps 689 mmHg 75%
    03:00 +15°C° 0 mm 1 mps 689 mmHg 77%
    04:00 +15°C° 0 mm 1 mps 689 mmHg 80%
    05:00 +16°C° 0 mm 1 mps 689 mmHg 76%
    06:00 +19°C° 0 mm 1 mps 690 mmHg 73%
    07:00 +20°C° 0 mm 1 mps 691 mmHg 70%
    08:00 +22°C° 0 mm 1 mps 691 mmHg 65%
    09:00 +24°C° 0 mm 1 mps 691 mmHg 60%
    10:00 +26°C° 0 mm 1 mps 692 mmHg 55%
    11:00 +27°C° 0.1 mm 1 mps 692 mmHg 52%
    12:00 +28°C° 0.1 mm 1 mps 692 mmHg 50%
    13:00 +28°C° 0.1 mm 1 mps 693 mmHg 47%
    14:00 +28°C° 0.2 mm 1 mps 692 mmHg 48%
    15:00 +27°C° 0.2 mm 1 mps 692 mmHg 49%
    16:00 +27°C° 0.2 mm 1 mps 691 mmHg 51%
    17:00 +25°C° 0.6 mm 1 mps 691 mmHg 62%
    18:00 +23°C° 0.6 mm 1 mps 691 mmHg 74%
    19:00 +20°C° 0.6 mm 1 mps 691 mmHg 86%
    20:00 +19°C° 1.3 mm 1 mps 691 mmHg 88%
    21:00 +18°C° 1.3 mm 1 mps 691 mmHg 91%
    22:00 +15°C° 1.3 mm 1 mps 691 mmHg 93%
    23:00 +15°C° 0.1 mm 1 mps 691 mmHg 93%

    Tomorrow, 17 June, Monday

    Time Temperature Precipitation Wind Pressure Humidity
    00:00 +14°C° 0.1 mm 1 mps 691 mmHg 94%
    01:00 +14°C° 0.1 mm 1 mps 691 mmHg 94%
    02:00 +13°C° 0 mm 1 mps 691 mmHg 94%
    03:00 +13°C° 0 mm 1 mps 691 mmHg 95%
    04:00 +13°C° 0 mm 1 mps 691 mmHg 95%
    05:00 +14°C° 0 mm 1 mps 691 mmHg 93%
    06:00 +15°C° 0 mm 1 mps 692 mmHg 91%
    07:00 +16°C° 0 mm 1 mps 692 mmHg 89%
    08:00 +20°C° 0 mm 1 mps 692 mmHg 78%
    09:00 +22°C° 0 mm 1 mps 693 mmHg 66%
    10:00 +24°C° 0 mm 1 mps 693 mmHg 55%
    11:00 +24°C° 0.4 mm 1 mps 693 mmHg 59%
    12:00 +24°C° 0.4 mm 1 mps 693 mmHg 63%
    13:00 +24°C° 0.4 mm 1 mps 692 mmHg 67%
    14:00 +24°C° 0.8 mm 1 mps 692 mmHg 68%
    15:00 +24°C° 0.8 mm 1 mps 692 mmHg 70%
    16:00 +23°C° 0.8 mm 1 mps 691 mmHg 72%
    17:00 +22°C° 0.3 mm 1 mps 691 mmHg 76%
    18:00 +21°C° 0.3 mm 1 mps 691 mmHg 80%
    19:00 +18°C° 0.3 mm 0 mps 691 mmHg 84%
    20:00 +17°C° 0.1 mm 0 mps 691 mmHg 87%
    21:00 +15°C° 0.1 mm 0 mps 691 mmHg 90%
    22:00 +14°C° 0.1 mm 0 mps 690 mmHg 92%
    23:00 +13°C° 0 mm 0 mps 690 mmHg 93%

    Day after tomorrow, 18 June, Tuesday

    Time Temperature Precipitation Wind Pressure Humidity
    00:00 +13°C° 0 mm 0 mps 690 mmHg 93%
    01:00 +14°C° 0 mm 1 mps 690 mmHg 93%
    02:00 +14°C° 0 mm 1 mps 690 mmHg 93%
    03:00 +13°C° 0 mm 1 mps 690 mmHg 93%
    04:00 +13°C° 0 mm 1 mps 689 mmHg 93%
    05:00 +14°C° 0 mm 1 mps 690 mmHg 90%
    06:00 +15°C° 0 mm 0 mps 690 mmHg 87%
    07:00 +16°C° 0 mm 0 mps 691 mmHg 83%
    08:00 +20°C° 0 mm 1 mps 691 mmHg 75%
    09:00 +22°C° 0 mm 1 mps 691 mmHg 66%
    10:00 +24°C° 0 mm 1 mps 692 mmHg 58%
    11:00 +25°C° 0.3 mm 1 mps 691 mmHg 57%
    12:00 +26°C° 0.3 mm 1 mps 691 mmHg 57%
    13:00 +26°C° 0.3 mm 1 mps 691 mmHg 57%
    14:00 +26°C° 0.4 mm 1 mps 690 mmHg 61%
    15:00 +25°C° 0.4 mm 1 mps 690 mmHg 65%
    16:00 +24°C° 0.4 mm 2 mps 690 mmHg 70%
    17:00 +23°C° 0.5 mm 1 mps 690 mmHg 77%
    18:00 +22°C° 0.5 mm 1 mps 689 mmHg 83%
    19:00 +20°C° 0.5 mm 1 mps 689 mmHg 90%
    20:00 +19°C° 0.2 mm 1 mps 689 mmHg 91%
    21:00 +18°C° 0.2 mm 1 mps 689 mmHg 92%
    22:00 +16°C° 0.2 mm 1 mps 689 mmHg 92%
    23:00 +16°C° 0.1 mm 1 mps 689 mmHg 92%

    19 June, Wednesday

    Time Temperature Precipitation Wind Pressure Humidity
    00:00 +15°C° 0.1 mm 1 mps 689 mmHg 93%
    01:00 +15°C° 0.1 mm 1 mps 689 mmHg 93%
    02:00 +15°C° 0.1 mm 1 mps 689 mmHg 93%
    03:00 +15°C° 0.1 mm 1 mps 689 mmHg 93%
    04:00 +13°C° 0.1 mm 0 mps 689 mmHg 93%
    05:00 +15°C° 0 mm 0 mps 689 mmHg 90%
    06:00 +16°C° 0 mm 0 mps 689 mmHg 88%
    07:00 +18°C° 0 mm 0 mps 690 mmHg 85%
    08:00 +19°C° 0.6 mm 0 mps 690 mmHg 81%
    09:00 +21°C° 0.6 mm 0 mps 690 mmHg 76%
    10:00 +23°C° 0.6 mm 0 mps 690 mmHg 72%
    11:00 +26°C° 0.6 mm 1 mps 690 mmHg 65%
    12:00 +27°C° 0.6 mm 1 mps 690 mmHg 58%
    13:00 +28°C° 0.6 mm 1 mps 690 mmHg 51%
    14:00 +27°C° 0.2 mm 1 mps 690 mmHg 52%
    15:00 +27°C° 0.2 mm 2 mps 690 mmHg 52%
    16:00 +26°C° 0.2 mm 2 mps 690 mmHg 53%
    17:00 +23°C° 1 mm 2 mps 689 mmHg 66%
    18:00 +19°C° 1 mm 2 mps 689 mmHg 80%
    19:00 +16°C° 1 mm 1 mps 688 mmHg 93%
    20:00 +15°C° 0.1 mm 1 mps 689 mmHg 92%
    21:00 +15°C° 0.1 mm 1 mps 689 mmHg 91%
    22:00 +14°C° 0.1 mm 1 mps 689 mmHg 90%
    23:00 +13°C° 0 mm 1 mps 688 mmHg 90%

    20 June, Thursday

    Time Temperature Precipitation Wind Pressure Humidity
    00:00 +13°C° 0 mm 1 mps 688 mmHg 90%
    01:00 +13°C° 0 mm 1 mps 688 mmHg 90%
    02:00 +13°C° 0 mm 1 mps 688 mmHg 89%
    03:00 +12°C° 0 mm 1 mps 688 mmHg 88%
    04:00 +12°C° 0 mm 1 mps 688 mmHg 88%
    05:00 +14°C° 0 mm 1 mps 688 mmHg 84%
    06:00 +15°C° 0 mm 0 mps 689 mmHg 80%
    07:00 +17°C° 0 mm 0 mps 689 mmHg 76%
    08:00 +19°C° 0 mm 0 mps 690 mmHg 66%
    09:00 +24°C° 0 mm 1 mps 691 mmHg 56%
    10:00 +27°C° 0 mm 1 mps 691 mmHg 46%
    11:00 +28°C° 0 mm 1 mps 691 mmHg 42%
    12:00 +29°C° 0 mm 1 mps 691 mmHg 38%
    13:00 +29°C° 0 mm 1 mps 691 mmHg 35%
    14:00 +29°C° 0 mm 1 mps 691 mmHg 37%
    15:00 +29°C° 0 mm 1 mps 690 mmHg 40%
    16:00 +28°C° 0 mm 2 mps 690 mmHg 42%
    17:00 +26°C° 0 mm 2 mps 690 mmHg 54%
    18:00 +24°C° 0 mm 1 mps 690 mmHg 65%
    19:00 +22°C° 0 mm 1 mps 689 mmHg 77%
    20:00 +21°C° 0 mm 1 mps 689 mmHg 79%
    21:00 +19°C° 0 mm 1 mps 689 mmHg 82%
    22:00 +18°C° 0 mm 1 mps 690 mmHg 85%
    23:00 +16°C° 0 mm 1 mps 689 mmHg 86%

    21 June, Friday

    Time Temperature Precipitation Wind Pressure Humidity
    00:00 +16°C° 0 mm 1 mps 689 mmHg 87%
    01:00 +15°C° 0 mm 1 mps 689 mmHg 89%
    02:00 +15°C° 0 mm 1 mps 689 mmHg 89%
    03:00 +15°C° 0 mm 1 mps 689 mmHg 90%
    04:00 +14°C° 0 mm 1 mps 689 mmHg 90%
    05:00 +15°C° 0 mm 0 mps 690 mmHg 85%
    06:00 +17°C° 0 mm 0 mps 690 mmHg 79%
    07:00 +19°C° 0 mm 0 mps 690 mmHg 73%
    08:00 +21°C° 0 mm 0 mps 691 mmHg 65%
    09:00 +25°C° 0 mm 1 mps 691 mmHg 57%
    10:00 +27°C° 0 mm 1 mps 691 mmHg 49%
    11:00 +27°C° 0 mm 1 mps 691 mmHg 47%
    12:00 +28°C° 0 mm 2 mps 691 mmHg 44%
    13:00 +29°C° 0 mm 3 mps 691 mmHg 42%
    14:00 +28°C° 0 mm 3 mps 690 mmHg 42%
    15:00 +28°C° 0 mm 3 mps 690 mmHg 41%
    16:00 +27°C° 0 mm 3 mps 689 mmHg 41%
    17:00 +25°C° 0 mm 3 mps 689 mmHg 51%
    18:00 +23°C° 0 mm 2 mps 689 mmHg 61%
    19:00 +20°C° 0 mm 2 mps 689 mmHg 71%
    20:00 +19°C° 0 mm 2 mps 689 mmHg 73%
    21:00 +18°C° 0 mm 2 mps 689 mmHg 74%
    22:00 +16°C° 0 mm 1 mps 689 mmHg 76%
    23:00 +16°C° 0 mm 1 mps 689 mmHg 73%
    Show more